Overview Statistics Trail Chart Weather Telemetry Raw packets
 

This is the latest recevied weather packets stored in our database for station/object K1TTC. If no packets are shown the sender has not sent any weather packets the latest 10 day(s).

<< 50 51 52 53 54 55 56 >>
Time Temp. Humidity Pressure Rain* Wind** Luminosity Snow
1787853370 27.78° C 53% 1018 hPa 0 mm - 387 W/m² -
1787852767 27.78° C 53% 1018 hPa 0 mm - 336 W/m² -
1787852167 27.78° C 53% 1018.2 hPa 0 mm - 330 W/m² -
1787851562 27.78° C 52% 1018.4 hPa 0 mm - 387 W/m² -
1787850964 27.78° C 53% 1018.4 hPa 0 mm - 503 W/m² -
1787850361 27.78° C 53% 1018.5 hPa 0 mm - 504 W/m² -
1787849763 27.78° C 54% 1018.6 hPa 0 mm - 452 W/m² -
1787849164 27.78° C 53% 1018.6 hPa 0 mm - 570 W/m² -
1787848563 28.33° C 54% 1018.8 hPa 0 mm - 555 W/m² -
1787847967 27.78° C 56% 1018.8 hPa 0 mm - 951 W/m² -
1787847367 27.78° C 57% 1018.8 hPa 0 mm - 867 W/m² -
1787846765 27.22° C 60% 1018.9 hPa 0 mm - 886 W/m² -
1787846164 26.67° C 63% 1019.2 hPa 0 mm - 937 W/m² -
1787845563 26.11° C 64% 1019.5 hPa 0 mm - 817 W/m² -
1787844965 25.56° C 65% 1019.7 hPa 0 mm - 445 W/m² -
1787844362 25° C 66% 1019.9 hPa 0 mm - 773 W/m² -
1787843762 24.44° C 69% 1019.9 hPa 0 mm - 954 W/m² -
1787843161 23.89° C 70% 1020 hPa 0 mm - 373 W/m² -
1787842560 23.33° C 71% 1020.1 hPa 0 mm - 578 W/m² -
1787841958 22.78° C 73% 1020.2 hPa 0 mm - 578 W/m² -
1787841357 22.22° C 72% 1020.3 hPa 0 mm - 287 W/m² -
1787840756 22.22° C 72% 1020.3 hPa 0 mm - 223 W/m² -
1787840155 21.67° C 73% 1020.4 hPa 0 mm - 253 W/m² -
1787839555 21.67° C 73% 1020.4 hPa 0 mm - 200 W/m² -
1787838955 21.67° C 73% 1020.2 hPa 0 mm - 155 W/m² -

* Rain latest hour (hover to see other rain measurements)
** Current wind speed in m/s (hover to see current wind gust speed)